Regional Weather Roundup
Issued by NWS

Home | Current Version | Previous Version | Graphics & Text | Print | Product List | Glossary On
Versions: 1 2 3 4 5 6 7 8 9 10 11 12 13 14 15 16 17 18 19 20 21 22 23 24 25 26 27 28 29 30 31 32 33 34 35 36 37 38 39 40 41 42 43 44 45 46 47 48 49 50
000
ASUS45 KTFX 280010
RWRMT
MONTANA REGIONAL WEATHER ROUNDUP
NATIONAL WEATHER SERVICE GREAT FALLS MT
600 PM MDT THU APR 27 2017

NOTE: "FAIR" INDICATES FEW OR NO CLOUDS BELOW 12000 FEET WITH NO
SIGNIFICANT WEATHER AND/OR OBSTRUCTIONS TO VISIBILITY.

MTZ001>007-043-280100-
WEST OF THE DIVIDE

CITY           SKY/WX    TMP DP  RH WIND       PRES   REMARKS
KALISPELL      LGT RAIN  42  39  89 SE12      29.83R
MISSOULA       MOSUNNY   48  27  44 NW16      29.84S
BUTTE          MOSUNNY   40  23  50 N16G23    29.77R
MULLAN PASS    LGT SNOW  28  27  96 VRB3      29.83R FOG
ANACONDA         N/A     41  19  42 W16G24    29.77R
DEER LODGE       N/A     43  25  49 W16G28    29.79S
EUREKA           N/A     48  36  61 SE9       29.78R
HAMILTON         N/A     45  23  42 SW5       29.85R
LIBBY            N/A     48  28  46 CALM      29.82R
PLAINS           N/A     51  30  44 W9        29.87
$$

MTZ008-052>055-280100-
SOUTHWEST MONTANA

CITY           SKY/WX    TMP DP  RH WIND       PRES   REMARKS
BOZEMAN        LGT RAIN  39  34  82 W6        29.76R
DILLON         PTSUNNY   42  25  50 NW8       29.74R
W YELLOWSTONE  CLOUDY    37  18  44 NW3       29.72R
ENNIS          FOG       32  32 100 E5        29.82  VSB 1
THREE FORKS      N/A     44  30  58 SW5       29.77R
TWIN BRIDGES     N/A     46  23  40 N6        29.77R
$$

MTZ009-010-012-014-046-048-049-054-280100-
EAST SLOPES AND CENTRAL MONTANA

CITY           SKY/WX    TMP DP  RH WIND       PRES   REMARKS
CUT BANK       CLOUDY    43  34  70 VRB3      29.77R
GREAT FALLS    CLOUDY    42  35  76 N12       29.78R
MALMSTROM AFB  CLOUDY    41  37  87 N12       29.78R
HELENA         PTSUNNY   45  33  63 N20       29.74R
AUGUSTA        PTSUNNY   38  36  91 N9        29.77R
BOWMANS CRNR   PTSUNNY   40  31  69 N15       29.75R
CHOTEAU          N/A     39  37  93 N5        29.80R
FAIRFIELD      LGT RAIN  40  35  83 NW9       29.78R
POWER          LGT RAIN  40  38  93 N9        29.77R
RAYNESFORD     FLURRIES  36  36 100 NW7       29.76R WCI  30
ULM            LGT RAIN  40  37  91 NW7       29.78R
$$

MTZ011-013-016-021-045-047-050-051-280100-
NORTH CENTRAL MONTANA

CITY           SKY/WX    TMP DP  RH WIND       PRES   REMARKS
HAVRE          CLOUDY    46  38  73 NE10      29.75R
LEWISTOWN      CLOUDY    41  37  86 NW12G18   29.71R
N BAR RANCH    PTSUNNY   39  36  87 NW10      29.72R
CHINOOK          N/A     45  37  76 N5        29.75R
DENTON         LGT RAIN  41  39  93 MISG      29.69R
FORT BENTON      N/A     43  37  81 MISG      29.77R
GEYSER         LGT RAIN  40  36  87 W14       29.73R
GRASS RANGE    LGT RAIN  44  40  86 NW12      29.66R
JUDITH GAP     PTSUNNY   41  31  69 N24G37    29.69R
STANFORD       PTSUNNY   39  35  86 NW25      29.72R WCI  27
WINIFRED       PTSUNNY   44  37  77 NW14      29.70R
$$

MTZ017>020-022>027-061-062-280100-
NORTHEAST MONTANA

CITY           SKY/WX    TMP DP  RH WIND       PRES   REMARKS
GLASGOW        CLOUDY    53  20  27 E12       29.71R
JORDAN           N/A     54  27  35 E8        29.68R
SIDNEY         SUNNY     53  18  25 E13       29.73R
WOLF POINT     CLOUDY    56  20  24 E15       29.72R
MALTA          CLOUDY    52  36  54 NE8       29.70R
PLENTYWOOD       N/A     52   9  17 E10G16    29.76R
POPLAR           N/A     54  12  19 E10G18    29.74R
SCOBEY           N/A     54  17  23 NE8       29.75R
$$

MTZ028>42-056>058-280100-
SOUTHCENTRAL AND SOUTHEAST MONTANA

CITY           SKY/WX    TMP DP  RH WIND       PRES   REMARKS
BAKER          SUNNY     50  24  36 SE10      29.69R
BILLINGS       LGT RAIN  43  39  86 N10       29.69R
LIVINGSTON     CLOUDY    44  32  62 N23G29    29.71R
MILES CITY     CLOUDY    53  28  38 E10       29.67R
BIG TIMBER     PTSUNNY   43  34  70 NE12      29.72R
EKALAKA          N/A     49  24  37 E7        29.69R
LAUREL           N/A     43  32  65 NW10      29.71R
ROUNDUP          N/A     42  36  79 NW7       29.65R
$$

REGIONAL REPORTS...DAKOTAS

CITY           SKY/WX    TMP DP  RH WIND       PRES   REMARKS
WILLISTON      SUNNY     53  15  22 E12       29.76R
MINOT          SUNNY     52  21  29 N14       29.75R
DICKINSON      SUNNY     49  20  31 NE10      29.70R
BEACH            N/A     50  18  27 E13       29.74R
TIOGA            N/A     48   9  20 E12       29.77R
WATFORD CITY     N/A     50  14  23 E9G15     29.74S
BISMARCK       SUNNY     53  26  35 NE9       29.73R
GRAND FORKS    CLOUDY    43  33  68 NE12      29.69R
FARGO          CLOUDY    41  30  65 NE5       29.69R
BUFFALO SD       N/A     48  27  44 E12       29.62R
RAPID CITY     CLOUDY    45  32  60 E9        29.65R
$$

REGIONAL REPORTS...WYOMING/IDAHO/WASHINGTON

CITY           SKY/WX    TMP DP  RH WIND       PRES   REMARKS
GILLETTE       RAIN      37  36  96 N10       29.62R WCI  30
SHERIDAN       LGT SNOW  33  32  96 NW9       29.68R FOG     WCI  25
BUFFALO WY     SNOW      34  31  88 NW13G25   29.64R VSB 1/2 WCI  25
CODY           LGT RAIN  37  34  89 NW8       29.68R WCI  31
YELLOWSTONE LA   N/A     26  24  92 VRB3      29.73R
IDAHO FALLS    LGT RAIN  39  36  89 S20       29.78R WCI  29
SALMON         CLOUDY    45  25  45 N13G21    29.80R
BOISE          SUNNY     51  25  36 NW21G29   29.92S
SPOKANE        PTSUNNY   50  30  46 W17G25    29.87S
$$

REGIONAL REPORTS...ALBERTA

CITY           SKY/WX    TMP DP  RH WIND       PRES   REMARKS
EDMONTON       CLOUDY    41  28  60 E6        29.84R
CALGARY        PTSUNNY   43  27  52 N7        29.75R
LETHBRIDGE     PTSUNNY   46  34  61 VRB2      29.76R
MEDICINE HAT   PTSUNNY   50  27  40 N9        29.76R
CARDSTON         N/A     43  34  70 SE3         N/A
MILK RIVER       N/A     45  34  65 N1          N/A
ONEFOUR          N/A     48  30  49 N13         N/A
$$

REGIONAL REPORTS...SASKATCHEWAN

CITY           SKY/WX    TMP DP  RH WIND       PRES   REMARKS
SWIFT CURRENT  LGT RAIN  43  36  75 S9        29.76R
REGINA         PTSUNNY   50  12  22 E9        29.80R
SASKATOON      CLOUDY    46  18  31 E12       29.85R
CYPRESS HILLS    N/A     41  27  56 N7          N/A
VAL MARIE        N/A     45  34  65 E8          N/A
$$



USA.gov is the U.S. government's official web portal to all federal, state and local government web resources and services.